www.pogodaiklimat.ru
ПОГОДА в Пущино
Время
(UTC), дата
18 13.10
21 13.10
00 14.10
03 14.10
06 14.10
09 14.10
12 14.10
15 14.10
18 14.10
21 14.10
00 15.10
03 15.10
06 15.10
09 15.10
12 15.10
15 15.10
18 15.10
21 15.10
00 16.10
03 16.10
06 16.10
09 16.10
12 16.10
15 16.10
18 16.10
21 16.10
00 17.10
03 17.10
06 17.10
09 17.10
12 17.10
15 17.10
18 17.10
21 17.10
00 18.10
03 18.10
06 18.10
09 18.10
12 18.10
15 18.10
18 18.10
21 18.10
00 19.10
06 19.10
09 19.10
12 19.10
15 19.10
18 19.10
21 19.10
00 20.10
03 20.10
06 20.10
09 20.10
12 20.10
Ветер
(напр.,м/с)
Видим. Явления Облачность Т
(С)
Тd
(С)
f
(%)
Тe
(С)
Тes
(С)
Комфортность P
(гПа)
Po
(гПа)
Тmin
(С)
Tmax
(С)
R
(мм)
R24
(мм)
S
(см)
ЮЗ 3 20 км 10/1 1000 м
[Sc Ac trans]
-0.2 -6.0 65 -5 -5 холодно 1006.6 969.3
ЮЗ 4 20 км осадки на расстоянии 10/3 1000 м
[Cb cap Ac trans Ci fib]
-0.6 -5.5 69 -6 -6 холодно 1004.2 966.9 -0.6
ЮЗ 5 4000 м слаб. ливневой снег 10/6 600 м
[Cb cap Ac trans Ci fib]
+2.3 -4.9 59 -3 -2 прохладно 1003.8 966.9
ЮЗ 4
{10}
10 км слаб. ливневой снег 10/6 600 м
[Cb cap Ac trans Ci fib]
+2.5 -3.0 67 -2 -2 по сезону 1003.1 966.3
ЮЗ 5
{10}
4000 м слаб. ливневой снег 10/10 600 м
[Cb cap]
+1.0 -5.2 63 -4 -4 прохладно 1004.2 967.1
ЮЗ 4 4000 м слаб. ливневой снег 10/8 600 м
[Cb cap Ac trans]
0.0 -5.0 69 -5 -5 холодно 1006.6 969.3 +0.4 0.6
ЮЗ 5-11
{13}
20 км {ливн. осадки} 3/3 1000 м
[Sc]
-0.7 -4.8 74 -7 -7 холодно 1005.9 968.5
ЮЗ 5
{12}
20 км 3/3 1000 м
[Sc]
-0.6 -4.3 76 -7 -7 холодно 1006.6 969.3
ЮЗ 4 20 км 10/3 1000 м
[Sc Ac trans Ci fib]
-1.4 -4.4 80 -7 -7 холодно 1005.4 968.0
ЮЗ 5
{12}
10 км слаб. ливневой снег 10/5 600 м
[Cb cap Ci fib]
-0.4 -4.5 74 -6 -6 холодно 1003.9 966.7 -1.5 0.3 1
ЮЗ 6
{11}
10 км осадки на расстоянии {ливн. осадки} 10/6 600 м
[Cb cap Ci fib]
+1.9 -6.4 54 -4 -4 прохладно 1002.2 965.3
ЮЗ 5-10
{12}
10 км осадки на расстоянии {ливн. осадки} 10/6 600 м
[Cb cap Ci fib]
+2.7 -6.4 51 -2 -2 по сезону 1000.7 964.0
ЮЗ 3
{16}
10 км осадки на расстоянии {ливн. осадки} 10/5 600 м
[Cb cap Ci fib]
-0.1 -7.4 58 -4 -4 прохладно 999.7 962.7
ЮЗ 3 20 км 3/3 1000 м
[Sc]
-1.9 -5.6 76 -7 -7 холодно 998.5 961.3 +2.8 0.0
ЮЗ 3 20 км слаб. ливневой снег 10/3 1000 м
[Cb cap Ci fib]
-1.7 -4.8 79 -7 -7 холодно 998.3 961.1
ЮЗ 4 20 км слаб. ливневой снег 10/3 1000 м
[Cb cap Ci fib]
-2.3 -5.3 80 -8 -8 очень
холодно
998.6 961.3
ЮЗ 4 20 км слаб. ливневой снег 10/3 1000 м
[Cb cap Ac trans]
-1.5 -4.2 82 -7 -7 холодно 998.5 961.3
ЮЗ 5
{10}
4000 м слаб. ливневой снег 10/6 600 м
[Cb cap Ac trans]
-0.5 -3.7 79 -7 -7 холодно 998.4 961.4 -2.5 0.0
ЮЗ 4
{10}
2000 м слаб. ливневой снег 10/10 330 м
[Cb cap]
+0.3 -2.5 81 -5 -5 холодно 999.8 962.8
ЮЗ 5
{11}
10 км осадки на расстоянии {ливн. осадки} 8/4 600 м
[Cb cap Ac trans]
+2.9 -7.8 45 -2 -1 по сезону 1001.3 964.6
ЮЗ 4
{11}
10 км осадки на расстоянии {ливн. осадки} 8/5 1000 м
[Cb cap Ac trans]
+1.4 -8.4 48 -3 -3 прохладно 1003.7 966.7
ЮЗ 4 20 км 10/3 1000 м
[Sc Ci fib]
+0.9 -1.2 86 -4 -4 прохладно 1005.1 968.0 +3.4 0.0
ЮВ 2 20 км 10/3 1000 м
[Sc Ci fib]
-0.6 -6.2 66 -4 -4 прохладно 1006.7 969.3
ЮЗ 3 20 км 10/4 1000 м
[Sc Ci fib]
0.0 -6.2 63 -4 -4 прохладно 1006.6 969.3
ЮЗ 3 20 км 10/3 1000 м
[Sc Ac trans]
-0.3 -4.7 72 -5 -5 холодно 1006.6 969.3
ЮЗ 3 20 км осадки на расстоянии 10/3 1000 м
[Cb cap Ac trans Ci fib]
-0.2 -5.4 68 -5 -5 холодно 1005.6 968.3 -1.1
ЮЗ 4 20 км осадки на расстоянии 10/3 1000 м
[Cb cap Ac trans Ci fib]
+3.1 -8.0 44 -1 -0 по сезону 1004.8 967.9
З 2 20 км 10/3 1000 м
[Sc Ac trans Ci fib]
+4.0 -10.4 34 +2 +2 по сезону 1004.7 968.0
ЮЗ 3 20 км 10/3 1000 м
[Sc Ac trans Ci fib]
+2.6 -8.4 44 -1 -1 по сезону 1004.9 968.0
ЮЗ 2 20 км 10/3 1000 м
[Sc Ac trans Ci fib]
+0.2 -7.5 56 -3 -3 прохладно 1005.2 968.0 +4.5
ЮЗ 3 20 км 10/3 1000 м
[Sc Ac trans Ci fib]
-0.2 -7.0 60 -4 -4 прохладно 1006.6 969.3
ЮЗ 2 20 км 10/3 1000 м
[Sc Ac trans Ci fib]
-0.3 -7.1 60 -3 -3 прохладно 1005.3 968.0
ЮЗ 2 20 км 10/3 1000 м
[Sc Ac trans Ci fib]
-0.3 -7.1 60 -3 -3 прохладно 1006.6 969.3
ЮЗ 3 20 км 10/3 1000 м
[Sc Ac trans Ci fib]
-0.3 -6.3 64 -5 -5 холодно 1006.6 969.3 -0.8
Ю 3 20 км 10/3 1000 м
[Sc Ac trans Ci fib]
+2.3 -7.0 50 -1 -1 по сезону 1006.3 969.3
СЗ 2 20 км 10/3 1000 м
[Sc Ac trans Ci fib]
+4.8 -9.7 34 +3 +3 по сезону 1005.9 969.3
ЮЗ 2 20 км 8/3 1000 м
[Sc Ac trans]
+2.4 -9.8 40 0 0 по сезону 1007.7 970.7
З 1 20 км 10/3 1000 м
[Sc Ac trans Ci fib]
-1.9 -7.0 68 -4 -4 прохладно 1008.9 971.3 +5.6
З 2 20 км 10/1 1000 м
[Sc Ci fib]
-1.4 -8.1 60 -5 -5 холодно 1010.9 973.3
З 2 20 км ясно -2.9 -8.2 67 -7 -7 холодно 1010.7 972.8
З 1 20 км ясно -2.4 -9.0 60 -4 -4 прохладно 1011.3 973.5
З 1 20 км ясно -4.3 -8.8 71 -6 -6 холодно 1013.0 974.8 -6.1
ЮЗ 3 20 км ясно +4.5 -10.3 33 +2 +4 по сезону 1011.9 975.0
З 2 20 км 10/0
[Ci fib]
+3.9 -11.3 32 +2 +2 по сезону 1013.0 976.0
ЮЗ 2 20 км 10/0
[Ac As]
+1.6 -9.9 42 -1 -1 по сезону 1014.7 977.3 +7.2
З 1 20 км 3/0
[Ci fib]
-4.3 -9.1 69 -6 -6 холодно 1017.0 978.7
З 1 20 км ясно -6.7 -10.0 77 -9 -9 очень
холодно
1017.3 978.7
штиль 0 20 км ясно -8.3 -11.3 79 -9 -9 очень
холодно
1018.9 980.0
З 2 20 км ясно -6.9 -10.3 77 -11 -11 очень
холодно
1018.1 979.4 -9.2
СВ 1 20 км ясно +4.7 -9.4 35 +4 +8 по сезону 1018.4 981.3
штиль 0 20 км ясно +6.4 -11.7 26 +7 +10 тепло 1016.8 980.0
штиль 0 20 км ясно +4.1 -11.9 30 +4 +4 по сезону 1017.1 980.0
З 1 20 км ясно -3.8 -10.2 61 -6 -6 холодно 1018.2 980.0 +7.5
З 1 20 км ясно -6.0 -10.4 71 -8 -8 очень
холодно
1018.6 980.0
Местоположение метеостанции Пущино (Камчатский край, Россия): широта 54.18 долгота 158.00 высота над уровнем моря 303 м.
В архиве по умолчанию представлена погода в Пущино за последнюю неделю. Архивные данные за месяц целиком и за предыдущие месяцы, начиная с января 2011 года, Вы можете получить, выбрав интересующий диапазон дат из раскрывающегося списка и нажав кнопку "Найти!".
*Определитесь, кто Вы:
Внимание! Время в таблицах - всемирное. Для получения местного времени необходимо прибавить поправку, которая равна 12 ч.
Смотрите также архив погоды в соседних городах и на ближайших метеорологических станциях:
Партнеры нашего сайта:      
Пояснения к столбцам:
  • Ветер - указаны скорость ветра в м/с - средняя за 10 мин, порывы в срок и между сроками (в фигурных скобках) и направление, откуда дует ветер: С - северный,
  • СВ - северо-восточный, В - восточный, ЮВ - юго-восточный, Ю - южный, ЮЗ - юго-западный, З - западный, СЗ - северо-западный.
  • Видимость - горизонтальная дальность видимости в метрах или километрах. При видимости от 1 до 10 км при отсутствии осадков обычно наблюдается дымка, при ухудшении видимости до 1 км и менее - туман. В сухую погоду видимость может ухудшаться дымом, пылью или мглою.
  • Явления - указаны атмосферные явления, наблюдавшиеся в срок или в последний час перед сроком; фигурными скобками обозначены явления, наблюдавшиеся между сроками (за 1-3 часа до срока); квадратными скобками обозначены град или гололедные отложения с указанием их диаметра в мм.
  • Облачность - указаны через наклонную черту общая и нижняя облачность в баллах и высота нижней границы облаков в метрах; квадратными скобками обозначены формы облаков: Ci - перистые, Cs - перисто-слоистые, Cc - перисто-кучевые, Ac - высококучевые, As - высокослоистые, Sc - слоисто-кучевые, Ns - слоисто-дождевые, Cu - кучевые, Cb - кучево-дождевые. Подробнее классификацию облаков см. в Атласе облаков (PDF).
  • T - Температура воздуха - температура, измеренная на высоте 2 м над землей.
  • Td - Температура точки росы - температура, при понижении до которой содержащийся в воздухе водяной пар достигнет насыщения.
  • f - Относительная влажность воздуха - влажноcть воздуха, измеренная на высоте 2 м над землей.
  • Te - Эффективная температура - температура, которую ощущает одетый по сезону человек в тени. Характеристика душности погоды. При расчете учитывается влияние влажности воздуха и скорости ветра на теплоощущения человека.
  • Tes - Эффективная температура на солнце - температура, которую ощущает человек, с поправкой на солнечный нагрев. Характеристика знойности погоды. Зависит от высоты солнца над горизонтом, облачности и скорости ветра. Ночью, в пасмурную погоду, а также при ветре 12 м/с и более поправка равна нулю.
  • P - Атмосферное давление - приведенное к уровню моря атмосферное давление.
  • Po - Атмосферное давление - измеренное на уровне метеостанции атмосферное давление.
  • Tmin - Минимальная температура - минимум температуры воздуха на высоте 2 м над землей.
  • Tmax - Максимальная температура - максимум температуры воздуха на высоте 2 м над землей.
  • R - Количество осадков - Количество выпавших осадков за период времени, мм. При наведении курсора мыши на число - период времени, за который выпало указанное количество осадков.
  • R24 - Количество осадков - Количество выпавших осадков за 24 часа, мм.
  • S - Снежный покров - Высота снежного покрова, см. При наведении курсора мыши на число - состояние снежного покрова и степень покрытия местности в баллах.